Starlink 31736

operational
NORAD ID: 59547 Int'l Des: 2024-074 Owner: SPXS Country: US Constellation: starlink
LEOCIRCULAR

About Starlink 31736

Description loading...

Live Position

Loading 3D Globe...

Upcoming Passes

Altitude History

Altitude vs Time

uPlot chart will show altitude changes over time

Two-Line Element Set

1 59547U 24074P 25350.96929178 .00000917 00000-0 42835-4 0 9996
2 59547 43.0031 83.7319 0001631 278.4037 81.6630 15.27579579 93447
Epoch: Dec 16, 2025 • Age: 12 hours

Current Status

Altitude 494.4 km
Velocity 7.62 km/s
Sub-Earth Point -40.75°S, 71.06°E
Launch Date Apr 18, 2024
Age 1.6 years
Type internet

Technical Details

Classification Payload
Mass 730.00 kg
Dry Mass 700.00 kg
Total Mass 730.00 kg
Length 0.30 m
Diameter 4.10 m
Span 29.00 m
Shape Box + pan
Manufacturer SPXS
Bus Type Starlink V2M
Phase Status In Orbit
Owner/State SPXS/US

Large Constellations

Loading constellations...